Data supplied by UK-AIR on 9/6/2018
All Data GMT hour ending 
Status: R =Ratified P=Provisional,P*=As supplied
,,Wrexham,,,,,,,,,,,,,,,,,,,,,,,
Date,time,"Nitric oxide",status,unit,"Nitrogen dioxide",status,unit,"Nitrogen oxides as nitrogen dioxide",status,unit,"Sulphur dioxide",status,unit
 
01-01-2017,01:00,,,,,,,,,,4.13947,R,ugm-3
01-01-2017,02:00,,,,,,,,,,4.89872,R,ugm-3
01-01-2017,03:00,,,,,,,,,,4.69050,R,ugm-3
01-01-2017,04:00,,,,,,,,,,5.03642,R,ugm-3
01-01-2017,05:00,,,,,,,,,,6.20788,R,ugm-3
01-01-2017,06:00,,,,,,,,,,6.27773,R,ugm-3
01-01-2017,07:00,,,,,,,,,,6.89838,R,ugm-3
01-01-2017,08:00,,,,,,,,,,7.31215,R,ugm-3
01-01-2017,09:00,,,,,,,,,,6.13936,R,ugm-3
01-01-2017,10:00,,,,,,,,,,6.13936,R,ugm-3
01-01-2017,11:00,,,,,,,,,,5.10494,R,ugm-3
01-01-2017,12:00,,,,,,,,,,5.51871,R,ugm-3
01-01-2017,13:00,,,,,,,,,,5.79478,R,ugm-3
01-01-2017,14:00,,,,,,,,,,5.45019,R,ugm-3
01-01-2017,15:00,,,,,,,,,,5.03575,R,ugm-3
01-01-2017,16:00,,,,,,,,,,4.34658,R,ugm-3
01-01-2017,17:00,,,,,,,,,,3.38067,R,ugm-3
01-01-2017,18:00,,,,,,,,,,2.34558,R,ugm-3
01-01-2017,19:00,,,,,,,,,,2.00033,R,ugm-3
01-01-2017,20:00,,,,,,,,,,1.17213,R,ugm-3
01-01-2017,21:00,,,,,,,,,,1.24131,R,ugm-3
01-01-2017,22:00,,,,,,,,,,1.17279,R,ugm-3
01-01-2017,23:00,,,,,,,,,,0.75902,R,ugm-3
01-01-2017,24:00,,,,,,,,,,0.55214,R,ugm-3
02-01-2017,01:00,,,,,,,,,,2.93763,R,ugm-3
02-01-2017,02:00,,,,,,,,,,2.66179,R,ugm-3
02-01-2017,03:00,,,,,,,,,,2.61633,R,ugm-3
02-01-2017,04:00,,,,,,,,,,2.20456,R,ugm-3
02-01-2017,05:00,,,,,,,,,,2.68485,R,ugm-3
02-01-2017,06:00,,,,,,,,,,1.58390,R,ugm-3
02-01-2017,07:00,,,,,,,,,,1.65308,R,ugm-3
02-01-2017,08:00,,,,,,,,,,1.10161,R,ugm-3
02-01-2017,09:00,,,,,,,,,,0.55081,R,ugm-3
02-01-2017,10:00,,,,,,,,,,0.75836,R,ugm-3
02-01-2017,11:00,,,,,,,,,,1.58457,R,ugm-3
02-01-2017,12:00,,,,,,,,,,1.51538,R,ugm-3
02-01-2017,13:00,,,,,,,,,,3.44321,R,ugm-3
02-01-2017,14:00,,,,,,,,,,4.47430,R,ugm-3
02-01-2017,15:00,,,,,,,,,,3.85498,R,ugm-3
02-01-2017,16:00,,,,,,,,,,3.02944,R,ugm-3
02-01-2017,17:00,,,,,,,,,,2.75470,R,ugm-3
02-01-2017,18:00,,,,,,,,,,3.71728,R,ugm-3
02-01-2017,19:00,,,,,,,,,,3.71794,R,ugm-3
02-01-2017,20:00,,,,,,,,,,2.89240,R,ugm-3
02-01-2017,21:00,,,,,,,,,,3.51172,R,ugm-3
02-01-2017,22:00,,,,,,,,,,2.75403,R,ugm-3
02-01-2017,23:00,,,,,,,,,,3.02944,R,ugm-3
02-01-2017,24:00,,,,,,,,,,3.09795,R,ugm-3
03-01-2017,01:00,,,,,,,,,,0.54992,R,ugm-3
03-01-2017,02:00,,,,,,,,,,1.16880,R,ugm-3
03-01-2017,03:00,,,,,,,,,,1.30584,R,ugm-3
03-01-2017,04:00,,,,,,,,,,1.09962,R,ugm-3
03-01-2017,05:00,,,,,,,,,,1.44287,R,ugm-3
03-01-2017,06:00,,,,,,,,,,1.09895,R,ugm-3
03-01-2017,07:00,,,,,,,,,,1.37369,R,ugm-3
03-01-2017,08:00,,,,,,,,,,1.57991,R,ugm-3
03-01-2017,09:00,,,,,,,,,,1.92383,R,ugm-3
03-01-2017,10:00,,,,,,,,,,2.19857,R,ugm-3
03-01-2017,11:00,,,,,,,,,,2.61101,R,ugm-3
03-01-2017,12:00,,,,,,,,,,2.47331,R,ugm-3
03-01-2017,13:00,,,,,,,,,,1.85465,R,ugm-3
03-01-2017,14:00,,,,,,,,,,2.54249,R,ugm-3
03-01-2017,15:00,,,,,,,,,,1.85531,R,ugm-3
03-01-2017,16:00,,,,,,,,,,1.85531,R,ugm-3
03-01-2017,17:00,,,,,,,,,,2.13005,R,ugm-3
03-01-2017,18:00,,,,,,,,,,2.81723,R,ugm-3
03-01-2017,19:00,,,,,,,,,,2.88575,R,ugm-3
03-01-2017,20:00,,,,,,,,,,3.50441,R,ugm-3
03-01-2017,21:00,,,,,,,,,,3.50507,R,ugm-3
03-01-2017,22:00,,,,,,,,,,3.43655,R,ugm-3
03-01-2017,23:00,,,,,,,,,,3.84899,R,ugm-3
03-01-2017,24:00,,,,,,,,,,3.36737,R,ugm-3
04-01-2017,01:00,,,,,,,,,,4.84727,R,ugm-3
04-01-2017,02:00,,,,,,,,,,5.14352,R,ugm-3
04-01-2017,03:00,,,,,,,,,,5.55529,R,ugm-3
04-01-2017,04:00,,,,,,,,,,5.62381,R,ugm-3
04-01-2017,05:00,,,,,,,,,,6.24048,R,ugm-3
04-01-2017,06:00,,,,,,,,,,6.65292,R,ugm-3
04-01-2017,07:00,,,,,,,,,,5.55529,R,ugm-3
04-01-2017,08:00,,,,,,,,,,6.30966,R,ugm-3
04-01-2017,09:00,,,,,,,,,,5.89789,R,ugm-3
04-01-2017,10:00,,,,,,,,,,5.28122,R,ugm-3
04-01-2017,11:00,,,,,,,,,,5.07567,R,ugm-3
04-01-2017,12:00,,,,,,,,,,4.32064,R,ugm-3
04-01-2017,13:00,,,,,,,,,,4.66456,R,ugm-3
04-01-2017,14:00,,,,,,,,,,4.80093,R,ugm-3
04-01-2017,15:00,,,,,,,,,,3.42857,R,ugm-3
04-01-2017,16:00,,,,,,,,,,4.18294,R,ugm-3
04-01-2017,17:00,,,,,,,,,,7.27024,R,ugm-3
04-01-2017,18:00,,,,,,,,,,6.92699,R,ugm-3
04-01-2017,19:00,,,,,,,,,,7.95609,R,ugm-3
04-01-2017,20:00,,,,,,,,,,7.27024,R,ugm-3
04-01-2017,21:00,,,,,,,,,,4.38916,R,ugm-3
04-01-2017,22:00,,,,,,,,,,3.22302,R,ugm-3
04-01-2017,23:00,,,,,,,,,,1.23466,R,ugm-3
04-01-2017,24:00,,,,,,,,,,1.23532,R,ugm-3
05-01-2017,01:00,,,,,,,,,,2.18992,R,ugm-3
05-01-2017,02:00,,,,,,,,,,2.32696,R,ugm-3
05-01-2017,03:00,,,,,,,,,,1.50474,R,ugm-3
05-01-2017,04:00,,,,,,,,,,2.18992,R,ugm-3
05-01-2017,05:00,,,,,,,,,,2.46399,R,ugm-3
05-01-2017,06:00,,,,,,,,,,1.36903,R,ugm-3
05-01-2017,07:00,,,,,,,,,,1.30052,R,ugm-3
05-01-2017,08:00,,,,,,,,,,2.60103,R,ugm-3
05-01-2017,09:00,,,,,,,,,,3.69732,R,ugm-3
05-01-2017,10:00,,,,,,,,,,3.55895,R,ugm-3
05-01-2017,11:00,,,,,,,,,,5.20273,R,ugm-3
05-01-2017,12:00,,,,,,,,,,2.53251,R,ugm-3
05-01-2017,13:00,,,,,,,,,,3.97073,R,ugm-3
05-01-2017,14:00,,,,,,,,,,3.21769,R,ugm-3
05-01-2017,15:00,,,,,,,,,,4.58673,R,ugm-3
05-01-2017,16:00,,,,,,,,,,5.47613,R,ugm-3
05-01-2017,17:00,,,,,,,,,,4.99717,R,ugm-3
05-01-2017,18:00,,,,,,,,,,3.08066,R,ugm-3
05-01-2017,19:00,,,,,,,,,,2.32696,R,ugm-3
05-01-2017,20:00,,,,,,,,,,2.19059,R,ugm-3
05-01-2017,21:00,,,,,,,,,,0.54748,R,ugm-3
05-01-2017,22:00,,,,,,,,,,1.71029,R,ugm-3
05-01-2017,23:00,,,,,,,,,,0.95859,R,ugm-3
05-01-2017,24:00,,,,,,,,,,1.23200,R,ugm-3
06-01-2017,01:00,,,,,,,,,,0.36366,R,ugm-3
06-01-2017,02:00,,,,,,,,,,0.72909,R,ugm-3
06-01-2017,03:00,,,,,,,,,,0.75104,R,ugm-3
06-01-2017,04:00,,,,,,,,,,1.36704,R,ugm-3
06-01-2017,05:00,,,,,,,,,,1.29852,R,ugm-3
06-01-2017,06:00,,,,,,,,,,1.84533,R,ugm-3
06-01-2017,07:00,,,,,,,,,,2.86912,R,ugm-3
06-01-2017,08:00,,,,,,,,,,3.62015,R,ugm-3
06-01-2017,09:00,,,,,,,,,,3.34675,R,ugm-3
06-01-2017,10:00,,,,,,,,,,2.80126,R,ugm-3
06-01-2017,11:00,,,,,,,,,,3.41527,R,ugm-3
06-01-2017,12:00,,,,,,,,,,4.23549,R,ugm-3
06-01-2017,13:00,,,,,,,,,,5.12423,R,ugm-3
06-01-2017,14:00,,,,,,,,,,6.69482,R,ugm-3
06-01-2017,15:00,,,,,,,,,,7.58290,R,ugm-3
06-01-2017,16:00,,,,,,,,,,6.69549,R,ugm-3
06-01-2017,17:00,,,,,,,,,,6.08082,R,ugm-3
06-01-2017,18:00,,,,,,,,,,5.87527,R,ugm-3
06-01-2017,19:00,,,,,,,,,,4.91867,R,ugm-3
06-01-2017,20:00,,,,,,,,,,5.53334,R,ugm-3
06-01-2017,21:00,,,,,,,,,,4.98786,R,ugm-3
06-01-2017,22:00,,,,,,,,,,5.46482,R,ugm-3
06-01-2017,23:00,,,,,,,,,,3.55164,R,ugm-3
06-01-2017,24:00,,,,,,,,,,3.96208,R,ugm-3
07-01-2017,01:00,,,,,,,,,,2.63784,R,ugm-3
07-01-2017,02:00,,,,,,,,,,2.65890,R,ugm-3
07-01-2017,03:00,,,,,,,,,,2.72742,R,ugm-3
07-01-2017,04:00,,,,,,,,,,3.00017,R,ugm-3
07-01-2017,05:00,,,,,,,,,,2.38749,R,ugm-3
07-01-2017,06:00,,,,,,,,,,2.11409,R,ugm-3
07-01-2017,07:00,,,,,,,,,,2.79461,R,ugm-3
07-01-2017,08:00,,,,,,,,,,1.77349,R,ugm-3
07-01-2017,09:00,,,,,,,,,,3.61350,R,ugm-3
07-01-2017,10:00,,,,,,,,,,7.50041,R,ugm-3
07-01-2017,11:00,,,,,,,,,,6.61433,R,ugm-3
07-01-2017,12:00,,,,,,,,,,3.61350,R,ugm-3
07-01-2017,13:00,,,,,,,,,,1.02245,R,ugm-3
07-01-2017,14:00,,,,,,,,,,0.54549,R,ugm-3
07-01-2017,15:00,,,,,,,,,,0.68252,R,ugm-3
07-01-2017,16:00,,,,,,,,,,1.90853,R,ugm-3
07-01-2017,17:00,,,,,,,,,,3.00017,R,ugm-3
07-01-2017,18:00,,,,,,,,,,4.29536,R,ugm-3
07-01-2017,19:00,,,,,,,,,,3.40928,R,ugm-3
07-01-2017,20:00,,,,,,,,,,2.04557,R,ugm-3
07-01-2017,21:00,,,,,,,,,,3.40928,R,ugm-3
07-01-2017,22:00,,,,,,,,,,2.86379,R,ugm-3
07-01-2017,23:00,,,,,,,,,,1.97705,R,ugm-3
07-01-2017,24:00,,,,,,,,,,2.11409,R,ugm-3
08-01-2017,01:00,,,,,,,,,,2.54027,R,ugm-3
08-01-2017,02:00,,,,,,,,,,2.58640,R,ugm-3
08-01-2017,03:00,,,,,,,,,,1.83802,R,ugm-3
08-01-2017,04:00,,,,,,,,,,2.92633,R,ugm-3
08-01-2017,05:00,,,,,,,,,,2.99418,R,ugm-3
08-01-2017,06:00,,,,,,,,,,2.51788,R,ugm-3
08-01-2017,07:00,,,,,,,,,,2.65358,R,ugm-3
08-01-2017,08:00,,,,,,,,,,3.13055,R,ugm-3
08-01-2017,09:00,,,,,,,,,,3.06270,R,ugm-3
08-01-2017,10:00,,,,,,,,,,3.33477,R,ugm-3
08-01-2017,11:00,,,,,,,,,,3.19907,R,ugm-3
08-01-2017,12:00,,,,,,,,,,3.81041,R,ugm-3
08-01-2017,13:00,,,,,,,,,,4.15167,R,ugm-3
08-01-2017,14:00,,,,,,,,,,3.06270,R,ugm-3
08-01-2017,15:00,,,,,,,,,,3.81107,R,ugm-3
08-01-2017,16:00,,,,,,,,,,2.31432,R,ugm-3
08-01-2017,17:00,,,,,,,,,,3.74322,R,ugm-3
08-01-2017,18:00,,,,,,,,,,3.67470,R,ugm-3
08-01-2017,19:00,,,,,,,,,,3.74256,R,ugm-3
08-01-2017,20:00,,,,,,,,,,3.94678,R,ugm-3
08-01-2017,21:00,,,,,,,,,,3.12988,R,ugm-3
08-01-2017,22:00,,,,,,,,,,3.87893,R,ugm-3
08-01-2017,23:00,,,,,,,,,,5.03509,R,ugm-3
08-01-2017,24:00,,,,,,,,,,4.69516,R,ugm-3
09-01-2017,01:00,,,,,,,,,,0.54282,R,ugm-3
09-01-2017,02:00,,,,,,,,,,0.63329,R,ugm-3
09-01-2017,03:00,,,,,,,,,,1.15417,R,ugm-3
09-01-2017,04:00,,,,,,,,,,2.03825,R,ugm-3
09-01-2017,05:00,,,,,,,,,,2.24181,R,ugm-3
09-01-2017,06:00,,,,,,,,,,1.97040,R,ugm-3
09-01-2017,07:00,,,,,,,,,,2.58107,R,ugm-3
09-01-2017,08:00,,,,,,,,,,3.19175,R,ugm-3
09-01-2017,09:00,,,,,,,,,,3.73524,R,ugm-3
09-01-2017,10:00,,,,,,,,,,5.36571,R,ugm-3
09-01-2017,11:00,,,,,,,,,,6.04423,R,ugm-3
09-01-2017,12:00,,,,,,,,,,6.38416,R,ugm-3
09-01-2017,13:00,,,,,,,,,,6.17994,R,ugm-3
09-01-2017,14:00,,,,,,,,,,7.40329,R,ugm-3
09-01-2017,15:00,,,,,,,,,,7.53900,R,ugm-3
09-01-2017,16:00,,,,,,,,,,6.92699,R,ugm-3
09-01-2017,17:00,,,,,,,,,,5.97638,R,ugm-3
09-01-2017,18:00,,,,,,,,,,7.40395,R,ugm-3
09-01-2017,19:00,,,,,,,,,,7.53966,R,ugm-3
09-01-2017,20:00,,,,,,,,,,8.08248,R,ugm-3
09-01-2017,21:00,,,,,,,,,,8.96524,R,ugm-3
09-01-2017,22:00,,,,,,,,,,8.96457,R,ugm-3
09-01-2017,23:00,,,,,,,,,,8.76101,R,ugm-3
09-01-2017,24:00,,,,,,,,,,9.30517,R,ugm-3
10-01-2017,01:00,,,,,,,,,,4.88009,R,ugm-3
10-01-2017,02:00,,,,,,,,,,4.13437,R,ugm-3
10-01-2017,03:00,,,,,,,,,,4.06652,R,ugm-3
10-01-2017,04:00,,,,,,,,,,4.06719,R,ugm-3
10-01-2017,05:00,,,,,,,,,,3.32213,R,ugm-3
10-01-2017,06:00,,,,,,,,,,3.45717,R,ugm-3
10-01-2017,07:00,,,,,,,,,,2.98287,R,ugm-3
10-01-2017,08:00,,,,,,,,,,3.11858,R,ugm-3
10-01-2017,09:00,,,,,,,,,,3.18643,R,ugm-3
10-01-2017,10:00,,,,,,,,,,3.05072,R,ugm-3
10-01-2017,11:00,,,,,,,,,,2.71146,R,ugm-3
10-01-2017,12:00,,,,,,,,,,2.77931,R,ugm-3
10-01-2017,13:00,,,,,,,,,,2.50790,R,ugm-3
10-01-2017,14:00,,,,,,,,,,1.22069,R,ugm-3
10-01-2017,15:00,,,,,,,,,,,,
10-01-2017,16:00,,,,,,,,,,1.69566,R,ugm-3
10-01-2017,17:00,,,,,,,,,,2.50790,R,ugm-3
10-01-2017,18:00,,,,,,,,,,1.69499,R,ugm-3
10-01-2017,19:00,,,,,,,,,,1.96574,R,ugm-3
10-01-2017,20:00,,,,,,,,,,0.88142,R,ugm-3
10-01-2017,21:00,,,,,,,,,,0.88209,R,ugm-3
10-01-2017,22:00,,,,,,,,,,1.55929,R,ugm-3
10-01-2017,23:00,,,,,,,,,,2.16930,R,ugm-3
10-01-2017,24:00,,,,,,,,,,2.84716,R,ugm-3
11-01-2017,01:00,,,,,,,,,,3.97361,R,ugm-3
11-01-2017,02:00,,,,,,,,,,4.67254,R,ugm-3
11-01-2017,03:00,,,,,,,,,,5.62115,R,ugm-3
11-01-2017,04:00,,,,,,,,,,5.55330,R,ugm-3
11-01-2017,05:00,,,,,,,,,,5.82405,R,ugm-3
11-01-2017,06:00,,,,,,,,,,3.92749,R,ugm-3
11-01-2017,07:00,,,,,,,,,,2.98021,R,ugm-3
11-01-2017,08:00,,,,,,,,,,3.25029,R,ugm-3
11-01-2017,09:00,,,,,,,,,,3.25096,R,ugm-3
11-01-2017,10:00,,,,,,,,,,3.65674,R,ugm-3
11-01-2017,11:00,,,,,,,,,,3.31814,R,ugm-3
11-01-2017,12:00,,,,,,,,,,2.91169,R,ugm-3
11-01-2017,13:00,,,,,,,,,,3.04806,R,ugm-3
11-01-2017,14:00,,,,,,,,,,2.43738,R,ugm-3
11-01-2017,15:00,,,,,,,,,,2.16730,R,ugm-3
11-01-2017,16:00,,,,,,,,,,1.28655,R,ugm-3
11-01-2017,17:00,,,,,,,,,,1.08365,R,ugm-3
11-01-2017,18:00,,,,,,,,,,0.88076,R,ugm-3
11-01-2017,19:00,,,,,,,,,,1.69366,R,ugm-3
11-01-2017,20:00,,,,,,,,,,3.11525,R,ugm-3
11-01-2017,21:00,,,,,,,,,,2.37020,R,ugm-3
11-01-2017,22:00,,,,,,,,,,2.50524,R,ugm-3
11-01-2017,23:00,,,,,,,,,,2.70880,R,ugm-3
11-01-2017,24:00,,,,,,,,,,2.70880,R,ugm-3
12-01-2017,01:00,,,,,,,,,,1.53356,R,ugm-3
12-01-2017,02:00,,,,,,,,,,1.42092,R,ugm-3
12-01-2017,03:00,,,,,,,,,,0.40579,R,ugm-3
12-01-2017,04:00,,,,,,,,,,2.50324,R,ugm-3
12-01-2017,05:00,,,,,,,,,,2.97622,R,ugm-3
12-01-2017,06:00,,,,,,,,,,3.72127,R,ugm-3
12-01-2017,07:00,,,,,,,,,,3.99135,R,ugm-3
12-01-2017,08:00,,,,,,,,,,5.14219,R,ugm-3
12-01-2017,09:00,,,,,,,,,,7.30683,R,ugm-3
12-01-2017,10:00,,,,,,,,,,8.32130,R,ugm-3
12-01-2017,11:00,,,,,,,,,,5.95376,R,ugm-3
12-01-2017,12:00,,,,,,,,,,6.22385,R,ugm-3
12-01-2017,13:00,,,,,,,,,,5.81739,R,ugm-3
12-01-2017,14:00,,,,,,,,,,6.76534,R,ugm-3
12-01-2017,15:00,,,,,,,,,,7.57758,R,ugm-3
12-01-2017,16:00,,,,,,,,,,8.25411,R,ugm-3
12-01-2017,17:00,,,,,,,,,,7.91485,R,ugm-3
12-01-2017,18:00,,,,,,,,,,7.23898,R,ugm-3
12-01-2017,19:00,,,,,,,,,,6.69749,R,ugm-3
12-01-2017,20:00,,,,,,,,,,6.22385,R,ugm-3
12-01-2017,21:00,,,,,,,,,,6.76467,R,ugm-3
12-01-2017,22:00,,,,,,,,,,6.56178,R,ugm-3
12-01-2017,23:00,,,,,,,,,,6.15533,R,ugm-3
12-01-2017,24:00,,,,,,,,,,5.75021,R,ugm-3
13-01-2017,01:00,,,,,,,,,,7.30683,R,ugm-3
13-01-2017,02:00,,,,,,,,,,6.35889,R,ugm-3
13-01-2017,03:00,,,,,,,,,,6.29170,R,ugm-3
13-01-2017,04:00,,,,,,,,,,5.41227,R,ugm-3
13-01-2017,05:00,,,,,,,,,,4.73574,R,ugm-3
13-01-2017,06:00,,,,,,,,,,4.39780,R,ugm-3
13-01-2017,07:00,,,,,,,,,,3.72127,R,ugm-3
13-01-2017,08:00,,,,,,,,,,3.78846,R,ugm-3
13-01-2017,09:00,,,,,,,,,,4.26210,R,ugm-3
13-01-2017,10:00,,,,,,,,,,2.57110,R,ugm-3
13-01-2017,11:00,,,,,,,,,,3.45052,R,ugm-3
13-01-2017,12:00,,,,,,,,,,3.72127,R,ugm-3
13-01-2017,13:00,,,,,,,,,,2.90903,R,ugm-3
13-01-2017,14:00,,,,,,,,,,2.57110,R,ugm-3
13-01-2017,15:00,3.09892,R,ugm-3,10.37962,R,ugm-3,15.13122,R,ugm-3,3.04474,R,ugm-3
13-01-2017,16:00,4.29570,R,ugm-3,11.09872,R,ugm-3,17.68537,R,ugm-3,3.24763,R,ugm-3
13-01-2017,17:00,3.80489,R,ugm-3,11.56728,R,ugm-3,17.40136,R,ugm-3,3.17978,R,ugm-3
13-01-2017,18:00,3.03780,R,ugm-3,12.12908,R,ugm-3,16.78697,R,ugm-3,1.75886,R,ugm-3
13-01-2017,19:00,2.30127,R,ugm-3,9.38081,R,ugm-3,12.90938,R,ugm-3,1.35307,R,ugm-3
13-01-2017,20:00,1.93300,R,ugm-3,9.28328,R,ugm-3,12.24717,R,ugm-3,1.55596,R,ugm-3
13-01-2017,21:00,1.22703,R,ugm-3,7.95409,R,ugm-3,9.83551,R,ugm-3,1.08232,R,ugm-3
13-01-2017,22:00,1.04337,R,ugm-3,7.90436,R,ugm-3,9.50417,R,ugm-3,0.67653,R,ugm-3
13-01-2017,23:00,0.67510,R,ugm-3,5.39564,R,ugm-3,6.43078,R,ugm-3,0.60868,R,ugm-3
13-01-2017,24:00,0.98163,R,ugm-3,3.03418,R,ugm-3,4.53932,R,ugm-3,1.08232,R,ugm-3
14-01-2017,01:00,0.77748,R,ugm-3,3.34751,R,ugm-3,4.53964,R,ugm-3,3.33499,R,ugm-3
14-01-2017,02:00,0.61336,R,ugm-3,1.42386,R,ugm-3,2.36433,R,ugm-3,3.58290,R,ugm-3
14-01-2017,03:00,0.24541,R,ugm-3,1.13650,R,ugm-3,1.51279,R,ugm-3,3.37934,R,ugm-3
14-01-2017,04:00,0.42970,R,ugm-3,1.51661,R,ugm-3,2.17547,R,ugm-3,3.44720,R,ugm-3
14-01-2017,05:00,0.42970,R,ugm-3,1.37461,R,ugm-3,2.03347,R,ugm-3,3.71661,R,ugm-3
14-01-2017,06:00,0.33771,R,ugm-3,1.75233,R,ugm-3,2.27014,R,ugm-3,3.37934,R,ugm-3
14-01-2017,07:00,0.67479,R,ugm-3,3.07960,R,ugm-3,4.11427,R,ugm-3,3.37934,R,ugm-3
14-01-2017,08:00,3.34464,R,ugm-3,6.26726,R,ugm-3,11.39563,R,ugm-3,3.58224,R,ugm-3
14-01-2017,09:00,0.98225,R,ugm-3,5.58737,R,ugm-3,7.09346,R,ugm-3,3.44720,R,ugm-3
14-01-2017,10:00,3.58973,R,ugm-3,14.07218,R,ugm-3,19.57635,R,ugm-3,3.85232,R,ugm-3
14-01-2017,11:00,2.73096,R,ugm-3,8.62681,R,ugm-3,12.81423,R,ugm-3,3.71728,R,ugm-3
14-01-2017,12:00,3.40575,R,ugm-3,11.47022,R,ugm-3,16.69230,R,ugm-3,4.93397,R,ugm-3
14-01-2017,13:00,2.85382,R,ugm-3,10.51971,R,ugm-3,14.89551,R,ugm-3,4.12240,R,ugm-3
14-01-2017,14:00,3.28321,R,ugm-3,11.61079,R,ugm-3,16.64497,R,ugm-3,3.37934,R,ugm-3
14-01-2017,15:00,2.42413,R,ugm-3,9.90149,R,ugm-3,13.61843,R,ugm-3,2.50058,R,ugm-3
14-01-2017,16:00,3.12948,R,ugm-3,12.69757,R,ugm-3,17.49603,R,ugm-3,1.89257,R,ugm-3
14-01-2017,17:00,3.22146,R,ugm-3,14.73103,R,ugm-3,19.67054,R,ugm-3,1.69034,R,ugm-3
14-01-2017,18:00,3.52892,R,ugm-3,17.19194,R,ugm-3,22.60288,R,ugm-3,1.28322,R,ugm-3
14-01-2017,19:00,8.92880,R,ugm-3,28.44127,R,ugm-3,42.13190,R,ugm-3,2.29769,R,ugm-3
14-01-2017,20:00,28.53542,R,ugm-3,56.44696,R,ugm-3,100.20066,R,ugm-3,3.10926,R,ugm-3
14-01-2017,21:00,2.48556,R,ugm-3,12.17163,R,ugm-3,15.98276,R,ugm-3,2.50125,R,ugm-3
14-01-2017,22:00,2.17872,R,ugm-3,10.56178,R,ugm-3,13.90244,R,ugm-3,2.49992,R,ugm-3
14-01-2017,23:00,1.10448,R,ugm-3,5.16279,R,ugm-3,6.85631,R,ugm-3,2.23050,R,ugm-3
14-01-2017,24:00,0.85877,R,ugm-3,3.74276,R,ugm-3,5.05952,R,ugm-3,1.95975,R,ugm-3
15-01-2017,01:00,3.71903,R,ugm-3,9.05123,R,ugm-3,14.75366,R,ugm-3,2.16243,R,ugm-3
15-01-2017,02:00,0.82790,R,ugm-3,4.21563,R,ugm-3,5.48505,R,ugm-3,1.75752,R,ugm-3
15-01-2017,03:00,-0.03056,R,ugm-3,3.16710,R,ugm-3,3.12024,R,ugm-3,2.09479,R,ugm-3
15-01-2017,04:00,1.77803,R,ugm-3,7.48744,R,ugm-3,10.21371,R,ugm-3,2.90637,R,ugm-3
15-01-2017,05:00,0.00000,R,ugm-3,2.93186,R,ugm-3,2.93186,R,ugm-3,2.90637,R,ugm-3
15-01-2017,06:00,0.45994,R,ugm-3,4.02294,R,ugm-3,4.72818,R,ugm-3,3.31149,R,ugm-3
15-01-2017,07:00,0.91988,R,ugm-3,3.93306,R,ugm-3,5.34353,R,ugm-3,4.05588,R,ugm-3
15-01-2017,08:00,0.12255,R,ugm-3,3.07482,R,ugm-3,3.26273,R,ugm-3,4.32529,R,ugm-3
15-01-2017,09:00,0.12255,R,ugm-3,3.35835,R,ugm-3,3.54625,R,ugm-3,3.24430,R,ugm-3
15-01-2017,10:00,0.24541,R,ugm-3,4.44656,R,ugm-3,4.82285,R,ugm-3,3.10926,R,ugm-3
15-01-2017,11:00,1.01156,R,ugm-3,5.73081,R,ugm-3,7.28184,R,ugm-3,3.65009,R,ugm-3
15-01-2017,12:00,1.10355,R,ugm-3,7.19769,R,ugm-3,8.88978,R,ugm-3,2.29835,R,ugm-3
15-01-2017,13:00,1.74684,R,ugm-3,8.38679,R,ugm-3,11.06525,R,ugm-3,1.96042,R,ugm-3
15-01-2017,14:00,1.16436,R,ugm-3,7.29380,R,ugm-3,9.07912,R,ugm-3,1.75752,R,ugm-3
15-01-2017,15:00,1.47150,R,ugm-3,8.47763,R,ugm-3,10.73391,R,ugm-3,1.62248,R,ugm-3
15-01-2017,16:00,2.05337,R,ugm-3,10.23331,R,ugm-3,13.38176,R,ugm-3,1.35174,R,ugm-3
15-01-2017,17:00,1.44094,R,ugm-3,9.42337,R,ugm-3,11.63278,R,ugm-3,0.74372,R,ugm-3
15-01-2017,18:00,1.25634,R,ugm-3,8.42982,R,ugm-3,10.35619,R,ugm-3,0.67587,R,ugm-3
15-01-2017,19:00,1.47119,R,ugm-3,9.37699,R,ugm-3,11.63278,R,ugm-3,1.14884,R,ugm-3
15-01-2017,20:00,1.71691,R,ugm-3,10.22996,R,ugm-3,12.86252,R,ugm-3,1.55397,R,ugm-3
15-01-2017,21:00,3.18779,R,ugm-3,11.80443,R,ugm-3,16.69230,R,ugm-3,2.02761,R,ugm-3
15-01-2017,22:00,1.13411,R,ugm-3,7.95457,R,ugm-3,9.69351,R,ugm-3,1.68967,R,ugm-3
15-01-2017,23:00,3.95394,R,ugm-3,10.72434,R,ugm-3,16.78697,R,ugm-3,1.96042,R,ugm-3
15-01-2017,24:00,0.98069,R,ugm-3,5.77862,R,ugm-3,7.28232,R,ugm-3,1.75752,R,ugm-3
16-01-2017,01:00,0.81740,R,ugm-3,5.61255,R,ugm-3,6.86588,R,ugm-3,4.14036,R,ugm-3
16-01-2017,02:00,0.88901,R,ugm-3,4.02151,R,ugm-3,5.38464,R,ugm-3,3.51172,R,ugm-3
16-01-2017,03:00,0.58249,R,ugm-3,4.58665,R,ugm-3,5.47979,R,ugm-3,3.30816,R,ugm-3
16-01-2017,04:00,0.70535,R,ugm-3,5.10685,R,ugm-3,6.18837,R,ugm-3,3.98403,R,ugm-3
16-01-2017,05:00,0.76647,R,ugm-3,5.86325,R,ugm-3,7.03848,R,ugm-3,4.05122,R,ugm-3
16-01-2017,06:00,0.95013,R,ugm-3,6.62155,R,ugm-3,8.07840,R,ugm-3,4.05056,R,ugm-3
16-01-2017,07:00,3.24922,R,ugm-3,12.30742,R,ugm-3,17.28948,R,ugm-3,3.17312,R,ugm-3
16-01-2017,08:00,3.80084,R,ugm-3,15.76043,R,ugm-3,21.58830,R,ugm-3,3.78114,R,ugm-3
16-01-2017,09:00,4.93494,R,ugm-3,18.03679,R,ugm-3,25.60359,R,ugm-3,3.71329,R,ugm-3
16-01-2017,10:00,3.89251,R,ugm-3,13.68250,R,ugm-3,19.65094,R,ugm-3,3.51106,R,ugm-3
16-01-2017,11:00,3.18779,R,ugm-3,12.11808,R,ugm-3,17.00595,R,ugm-3,3.51106,R,ugm-3
16-01-2017,12:00,4.78184,R,ugm-3,15.43770,R,ugm-3,22.76975,R,ugm-3,2.90304,R,ugm-3
16-01-2017,13:00,4.50618,R,ugm-3,16.61532,R,ugm-3,23.52471,R,ugm-3,2.09280,R,ugm-3
16-01-2017,14:00,5.33377,R,ugm-3,16.90554,R,ugm-3,25.08387,R,ugm-3,2.22850,R,ugm-3
16-01-2017,15:00,5.63998,R,ugm-3,20.78218,R,ugm-3,29.43003,R,ugm-3,1.95776,R,ugm-3
16-01-2017,16:00,5.85483,R,ugm-3,21.77525,R,ugm-3,30.75252,R,ugm-3,1.41759,R,ugm-3
16-01-2017,17:00,5.51743,R,ugm-3,25.59929,R,ugm-3,34.05923,R,ugm-3,1.41826,R,ugm-3
16-01-2017,18:00,5.70141,R,ugm-3,27.58447,R,ugm-3,36.32650,R,ugm-3,1.75553,R,ugm-3
16-01-2017,19:00,9.28771,R,ugm-3,28.74679,R,ugm-3,42.98774,R,ugm-3,1.55264,R,ugm-3
16-01-2017,20:00,23.78632,R,ugm-3,46.66835,R,ugm-3,83.14020,R,ugm-3,2.76867,R,ugm-3
16-01-2017,21:00,11.09629,R,ugm-3,39.34156,R,ugm-3,56.35564,R,ugm-3,1.68834,R,ugm-3
16-01-2017,22:00,9.10373,R,ugm-3,32.80750,R,ugm-3,46.76636,R,ugm-3,1.14818,R,ugm-3
16-01-2017,23:00,2.69760,R,ugm-3,22.88450,R,ugm-3,27.02076,R,ugm-3,1.55264,R,ugm-3
16-01-2017,24:00,1.59405,R,ugm-3,16.92371,R,ugm-3,19.36789,R,ugm-3,1.21603,R,ugm-3
17-01-2017,01:00,1.63521,R,ugm-3,10.53023,R,ugm-3,13.03751,R,ugm-3,2.42852,R,ugm-3
17-01-2017,02:00,1.10355,R,ugm-3,8.84197,R,ugm-3,10.53405,R,ugm-3,2.49592,R,ugm-3
17-01-2017,03:00,2.94269,R,ugm-3,12.30503,R,ugm-3,16.81709,R,ugm-3,2.69882,R,ugm-3
17-01-2017,04:00,5.24178,R,ugm-3,14.82666,R,ugm-3,22.86394,R,ugm-3,2.02361,R,ugm-3
17-01-2017,05:00,3.55543,R,ugm-3,10.56226,R,ugm-3,16.01384,R,ugm-3,1.34908,R,ugm-3
17-01-2017,06:00,4.13792,R,ugm-3,14.91272,R,ugm-3,21.25744,R,ugm-3,2.02361,R,ugm-3
17-01-2017,07:00,29.76370,R,ugm-3,31.03127,R,ugm-3,76.66830,R,ugm-3,2.29370,R,ugm-3
17-01-2017,08:00,50.72987,R,ugm-3,39.08385,R,ugm-3,116.86857,R,ugm-3,2.96823,R,ugm-3
17-01-2017,09:00,67.71093,R,ugm-3,47.53041,R,ugm-3,151.35238,R,ugm-3,3.37269,R,ugm-3
17-01-2017,10:00,56.70694,R,ugm-3,39.31957,R,ugm-3,126.26899,R,ugm-3,2.62963,R,ugm-3
17-01-2017,11:00,59.77218,R,ugm-3,45.39032,R,ugm-3,137.03971,R,ugm-3,3.17046,R,ugm-3
17-01-2017,12:00,58.60751,R,ugm-3,40.37335,R,ugm-3,130.23695,R,ugm-3,2.56378,R,ugm-3
17-01-2017,13:00,41.56440,R,ugm-3,40.80797,R,ugm-3,104.53916,R,ugm-3,1.88857,R,ugm-3
17-01-2017,14:00,47.57265,R,ugm-3,43.87753,R,ugm-3,116.82124,R,ugm-3,1.55131,R,ugm-3
17-01-2017,15:00,40.76769,R,ugm-3,40.18736,R,ugm-3,102.69695,R,ugm-3,1.28189,R,ugm-3
17-01-2017,16:00,81.84190,R,ugm-3,65.82729,R,ugm-3,191.31646,R,ugm-3,2.69815,R,ugm-3
17-01-2017,17:00,69.42752,R,ugm-3,56.28344,R,ugm-3,162.73749,R,ugm-3,2.15866,R,ugm-3
17-01-2017,18:00,51.95566,R,ugm-3,48.87250,R,ugm-3,128.53673,R,ugm-3,2.49592,R,ugm-3
17-01-2017,19:00,33.65652,R,ugm-3,38.95045,R,ugm-3,90.55640,R,ugm-3,1.48412,R,ugm-3
17-01-2017,20:00,35.34256,R,ugm-3,38.77498,R,ugm-3,92.96615,R,ugm-3,1.68635,R,ugm-3
17-01-2017,21:00,23.44924,R,ugm-3,33.53330,R,ugm-3,69.48830,R,ugm-3,2.36088,R,ugm-3
17-01-2017,22:00,29.51829,R,ugm-3,29.75468,R,ugm-3,75.01542,R,ugm-3,2.36088,R,ugm-3
17-01-2017,23:00,15.60216,R,ugm-3,34.74726,R,ugm-3,58.67024,R,ugm-3,1.28122,R,ugm-3
17-01-2017,24:00,6.09992,R,ugm-3,16.95909,R,ugm-3,26.31218,R,ugm-3,0.20156,R,ugm-3
18-01-2017,01:00,2.15118,R,ugm-3,8.64641,R,ugm-3,11.94484,R,ugm-3,1.07944,R,ugm-3
18-01-2017,02:00,2.01688,R,ugm-3,9.79487,R,ugm-3,12.88738,R,ugm-3,2.42807,R,ugm-3
18-01-2017,03:00,1.79985,R,ugm-3,10.51062,R,ugm-3,13.27036,R,ugm-3,2.09147,R,ugm-3
18-01-2017,04:00,2.88532,R,ugm-3,11.62513,R,ugm-3,16.04922,R,ugm-3,2.90038,R,ugm-3
18-01-2017,05:00,10.33170,R,ugm-3,15.20342,R,ugm-3,31.04513,R,ugm-3,3.10261,R,ugm-3
18-01-2017,06:00,5.39894,R,ugm-3,14.90937,R,ugm-3,23.18763,R,ugm-3,2.15932,R,ugm-3
18-01-2017,07:00,20.60134,R,ugm-3,31.93779,R,ugm-3,63.52608,R,ugm-3,2.56378,R,ugm-3
18-01-2017,08:00,83.83384,R,ugm-3,55.27986,R,ugm-3,183.82328,R,ugm-3,4.72177,R,ugm-3
18-01-2017,09:00,132.54558,R,ugm-3,64.90834,R,ugm-3,268.14206,R,ugm-3,6.81257,R,ugm-3
18-01-2017,10:00,81.07294,R,ugm-3,53.62124,R,ugm-3,177.93135,R,ugm-3,4.92400,R,ugm-3
18-01-2017,11:00,47.25365,R,ugm-3,39.74605,R,ugm-3,112.20064,R,ugm-3,3.70996,R,ugm-3
18-01-2017,12:00,43.43722,R,ugm-3,35.44149,R,ugm-3,102.04431,R,ugm-3,2.96757,R,ugm-3
18-01-2017,13:00,46.60193,R,ugm-3,37.72741,R,ugm-3,109.18271,R,ugm-3,2.42874,R,ugm-3
18-01-2017,14:00,43.99570,R,ugm-3,36.59760,R,ugm-3,104.05673,R,ugm-3,2.09080,R,ugm-3
18-01-2017,15:00,31.86446,R,ugm-3,32.20220,R,ugm-3,81.06036,R,ugm-3,1.61916,R,ugm-3
18-01-2017,16:00,43.31312,R,ugm-3,37.69203,R,ugm-3,104.10455,R,ugm-3,2.02295,R,ugm-3
18-01-2017,17:00,25.69064,R,ugm-3,40.27916,R,ugm-3,79.67093,R,ugm-3,0.74239,R,ugm-3
18-01-2017,18:00,31.33685,R,ugm-3,36.22132,R,ugm-3,84.27049,R,ugm-3,1.14618,R,ugm-3
18-01-2017,19:00,29.59968,R,ugm-3,37.06473,R,ugm-3,82.45027,R,ugm-3,1.55197,R,ugm-3
18-01-2017,20:00,21.99770,R,ugm-3,38.89929,R,ugm-3,72.62862,R,ugm-3,1.41693,R,ugm-3
18-01-2017,21:00,20.50904,R,ugm-3,39.02600,R,ugm-3,70.47276,R,ugm-3,0.94395,R,ugm-3
18-01-2017,22:00,37.23222,R,ugm-3,34.99062,R,ugm-3,92.07923,R,ugm-3,2.15932,R,ugm-3
18-01-2017,23:00,38.41060,R,ugm-3,33.51943,R,ugm-3,92.41487,R,ugm-3,2.29370,R,ugm-3
18-01-2017,24:00,8.99802,R,ugm-3,20.64878,R,ugm-3,34.44556,R,ugm-3,0.74239,R,ugm-3
19-01-2017,01:00,1.92749,R,ugm-3,7.46258,R,ugm-3,10.41802,R,ugm-3,2.60502,R,ugm-3
19-01-2017,02:00,2.82888,R,ugm-3,9.68729,R,ugm-3,14.02484,R,ugm-3,2.96491,R,ugm-3
19-01-2017,03:00,3.11201,R,ugm-3,9.05903,R,ugm-3,13.83072,R,ugm-3,2.42674,R,ugm-3